Imperial, CA

11:23 AM PDT on March 28, 2017 (GMT -0700)
Imperial County

Weather History for KIPL - April, 2013

Change the Weather History Date:

Friday, April 12, 2013

  Actual Average Record
Temperature  
Mean Temperature 70 °F -  
Max Temperature 89 °F 85 °F 98 °F (1990)
Min Temperature 53 °F 56 °F 45 °F (1953)
Cooling Degree Days 6    
Growing Degree Days 20 (Base 50)    
Moisture  
Dew Point 39 °F    
Average Humidity 35    
Maximum Humidity 72    
Minimum Humidity 12    
Precipitation  
Precipitation 0.00 in - - ()
Sea Level Pressure  
Sea Level Pressure 29.72 in    
Wind  
Wind Speed 4 mph (ESE)    
Max Wind Speed 9 mph    
Max Gust Speed -    
Visibility 10 miles    
Events      
Averages and records for this station are not official NWS values.
T = Trace of Precipitation, MM = Missing Value Source: NWS Daily Summary

Daily Weather History Graph

Daily Weather History Graph

Search for Another Location

Airport or City:

Trip Planner

Search our weather history database for the weather conditions in past years. The results will help you decide how hot, cold, wet, or windy it might be!

Date:

Astronomy

Apr. 12, 2013 Rise Set
Actual Time 6:15 AM PDT 7:10 PM PDT
Civil Twilight 5:50 AM PDT 7:35 PM PDT
Nautical Twilight 5:20 AM PDT 8:05 PM PDT
Astronomical Twilight 4:50 AM PDT 8:36 PM PDT
Moon 7:35 AM PDT (4/12) 9:37 PM PDT (4/12)
Length of Visible Light 13h 45m
Length of Day
12h 54m
Waxing Crescent, 6% of the Moon is Illuminated
Apr 12
Waxing Crescent
Apr 18
First Quarter
Apr 25
Full
May 2
Last Quarter
May 9
New

Hourly Weather History & Observations

Time (PDT) Temp. Dew Point Humidity Pressure Visibility Wind Dir Wind Speed Gust Speed Precip Events Conditions
12:53 AM 64.0 °F 45.0 °F 50% 29.69 in 10.0 mi ESE 5.8 mph - N/A   Clear
1:53 AM 63.0 °F 43.0 °F 48% 29.68 in 10.0 mi SE 5.8 mph - N/A   Clear
2:53 AM 62.1 °F 43.0 °F 50% 29.68 in 10.0 mi SE 3.5 mph - N/A   Clear
3:53 AM 55.9 °F 42.1 °F 60% 29.67 in 10.0 mi Calm Calm - N/A   Clear
4:53 AM 55.9 °F 41.0 °F 57% 29.68 in 10.0 mi Calm Calm - N/A   Clear
5:53 AM 53.1 °F 44.1 °F 71% 29.69 in 10.0 mi West 3.5 mph - N/A   Clear
6:53 AM 54.0 °F 45.0 °F 72% 29.70 in 10.0 mi Calm Calm - N/A   Clear
7:53 AM 61.0 °F 42.1 °F 50% 29.72 in 10.0 mi NNW 3.5 mph - N/A   Clear
8:53 AM 68.0 °F 46.0 °F 45% 29.75 in 10.0 mi NE 6.9 mph - N/A   Clear
9:53 AM 75.0 °F 37.0 °F 25% 29.76 in 10.0 mi NE 6.9 mph - N/A   Clear
10:53 AM 78.1 °F 41.0 °F 27% 29.77 in 10.0 mi East 9.2 mph - N/A   Clear
11:53 AM 80.1 °F 39.0 °F 23% 29.77 in 10.0 mi ESE 8.1 mph - N/A   Clear
12:53 PM 82.9 °F 39.0 °F 21% 29.76 in 10.0 mi ESE 9.2 mph - N/A   Clear
1:53 PM 86.0 °F 37.0 °F 18% 29.74 in 10.0 mi Calm Calm - N/A   Clear
2:53 PM 88.0 °F 33.1 °F 14% 29.72 in 10.0 mi ENE 5.8 mph - N/A   Clear
3:53 PM 87.1 °F 37.0 °F 17% 29.70 in 10.0 mi WSW 3.5 mph - N/A   Clear
4:53 PM 88.0 °F 35.1 °F 15% 29.68 in 10.0 mi South 5.8 mph - N/A   Clear
5:53 PM 88.0 °F 28.9 °F 12% 29.68 in 10.0 mi South 5.8 mph - N/A   Clear
6:53 PM 84.9 °F 33.1 °F 16% 29.68 in 10.0 mi SW 3.5 mph - N/A   Clear
7:53 PM 80.1 °F 34.0 °F 19% 29.70 in 10.0 mi Calm Calm - N/A   Clear
8:53 PM 75.9 °F 34.0 °F 22% 29.72 in 10.0 mi Calm Calm - N/A   Clear
9:53 PM 70.0 °F 39.9 °F 33% 29.73 in 10.0 mi Calm Calm - N/A   Clear
10:53 PM 68.0 °F 39.9 °F 36% 29.74 in 10.0 mi Calm Calm - N/A   Clear
11:53 PM 66.9 °F 37.9 °F 34% 29.75 in 10.0 mi Calm Calm - N/A   Clear